owner,sensor,date,latitude,longitude,air_pressure(mBar),qcFlag 
COMPS,ioos:station:USF.COMPS:C10:1,2019-06-01T00:35:00,27.1690,-82.9260,1013.25,11111222 
COMPS,ioos:station:USF.COMPS:C10:1,2019-06-01T01:35:00,27.1690,-82.9260,1013.75,11111222 
COMPS,ioos:station:USF.COMPS:C10:1,2019-06-01T02:35:00,27.1690,-82.9260,1014.37,11111222 
COMPS,ioos:station:USF.COMPS:C10:1,2019-06-01T03:35:00,27.1690,-82.9260,1014.82,11111222 
COMPS,ioos:station:USF.COMPS:C10:1,2019-06-01T04:35:00,27.1690,-82.9260,1014.75,11111222 
COMPS,ioos:station:USF.COMPS:C10:1,2019-06-01T05:35:00,27.1690,-82.9260,1014.7,11111222 
COMPS,ioos:station:USF.COMPS:C10:1,2019-06-01T06:35:00,27.1690,-82.9260,1014.21,11111222 
COMPS,ioos:station:USF.COMPS:C10:1,2019-06-01T08:35:00,27.1690,-82.9260,1013.53,11111222 
COMPS,ioos:station:USF.COMPS:C10:1,2019-06-01T09:35:00,27.1690,-82.9260,1013.54,11111222 
COMPS,ioos:station:USF.COMPS:C10:1,2019-06-01T10:35:00,27.1690,-82.9260,1013.9,11111222 
COMPS,ioos:station:USF.COMPS:C10:1,2019-06-01T11:35:00,27.1690,-82.9260,1013.96,11111222 
COMPS,ioos:station:USF.COMPS:C10:1,2019-06-01T12:35:00,27.1690,-82.9260,1014.21,11111222 
COMPS,ioos:station:USF.COMPS:C10:1,2019-06-01T13:35:00,27.1690,-82.9260,1014.74,11111222 
COMPS,ioos:station:USF.COMPS:C10:1,2019-06-01T14:35:00,27.1690,-82.9260,1014.99,11111222 
COMPS,ioos:station:USF.COMPS:C10:1,2019-06-01T15:35:00,27.1690,-82.9260,1015.26,11111222 
COMPS,ioos:station:USF.COMPS:C10:1,2019-06-01T16:35:00,27.1690,-82.9260,1014.96,11111222 
COMPS,ioos:station:USF.COMPS:C10:1,2019-06-01T17:35:00,27.1690,-82.9260,1014.43,11111222 
COMPS,ioos:station:USF.COMPS:C10:1,2019-06-01T19:35:00,27.1690,-82.9260,1013.35,11111222 
COMPS,ioos:station:USF.COMPS:C10:1,2019-06-01T20:35:00,27.1690,-82.9260,1012.94,11111222 
COMPS,ioos:station:USF.COMPS:C10:1,2019-06-01T21:35:00,27.1690,-82.9260,1012.84,11111222 
COMPS,ioos:station:USF.COMPS:C10:1,2019-06-01T22:35:00,27.1690,-82.9260,1012.54,11111222 
COMPS,ioos:station:USF.COMPS:C10:1,2019-06-01T23:35:00,27.1690,-82.9260,1012.6,11111222 
COMPS,ioos:station:USF.COMPS:C10:1,2019-06-02T00:35:00,27.1690,-82.9260,1012.8,11111222 
COMPS,ioos:station:USF.COMPS:C10:1,2019-06-02T01:35:00,27.1690,-82.9260,1013.24,11111222 
COMPS,ioos:station:USF.COMPS:C10:1,2019-06-02T02:35:00,27.1690,-82.9260,1013.77,11111222 
COMPS,ioos:station:USF.COMPS:C10:1,2019-06-02T03:35:00,27.1690,-82.9260,1014.05,11111222 
COMPS,ioos:station:USF.COMPS:C10:1,2019-06-02T04:35:00,27.1690,-82.9260,1013.74,11111222 
COMPS,ioos:station:USF.COMPS:C10:1,2019-06-02T05:35:00,27.1690,-82.9260,1013.25,11111222 
COMPS,ioos:station:USF.COMPS:C10:1,2019-06-02T06:35:00,27.1690,-82.9260,1012.78,11111222 
COMPS,ioos:station:USF.COMPS:C10:1,2019-06-02T07:35:00,27.1690,-82.9260,1012.29,11111222 
COMPS,ioos:station:USF.COMPS:C10:1,2019-06-02T08:35:00,27.1690,-82.9260,1012.11,11111222 
COMPS,ioos:station:USF.COMPS:C10:1,2019-06-02T09:35:00,27.1690,-82.9260,1012.18,11111222 
COMPS,ioos:station:USF.COMPS:C10:1,2019-06-02T10:35:00,27.1690,-82.9260,1012.63,11111222 
COMPS,ioos:station:USF.COMPS:C10:1,2019-06-02T11:35:00,27.1690,-82.9260,1013.04,11111222 
COMPS,ioos:station:USF.COMPS:C10:1,2019-06-02T12:35:00,27.1690,-82.9260,1013.73,11111222 
COMPS,ioos:station:USF.COMPS:C10:1,2019-06-02T13:35:00,27.1690,-82.9260,1014.17,11111222 
COMPS,ioos:station:USF.COMPS:C10:1,2019-06-02T14:35:00,27.1690,-82.9260,1014.43,11111222 
COMPS,ioos:station:USF.COMPS:C10:1,2019-06-02T15:35:00,27.1690,-82.9260,1014.69,11111222 
COMPS,ioos:station:USF.COMPS:C10:1,2019-06-02T16:35:00,27.1690,-82.9260,1014.8,11111222 
COMPS,ioos:station:USF.COMPS:C10:1,2019-06-02T17:35:00,27.1690,-82.9260,1014.63,11111222 
COMPS,ioos:station:USF.COMPS:C10:1,2019-06-02T18:35:00,27.1690,-82.9260,1013.91,11111222 
COMPS,ioos:station:USF.COMPS:C10:1,2019-06-02T19:35:00,27.1690,-82.9260,1013.3,11111222 
COMPS,ioos:station:USF.COMPS:C10:1,2019-06-02T20:35:00,27.1690,-82.9260,1012.87,11111222 
COMPS,ioos:station:USF.COMPS:C10:1,2019-06-02T21:35:00,27.1690,-82.9260,1012.69,11111222 
COMPS,ioos:station:USF.COMPS:C10:1,2019-06-02T22:35:00,27.1690,-82.9260,1012.55,11111222 
COMPS,ioos:station:USF.COMPS:C10:1,2019-06-02T23:35:00,27.1690,-82.9260,1012.56,11111222 
COMPS,ioos:station:USF.COMPS:C10:1,2019-06-03T00:35:00,27.1690,-82.9260,1013.11,11111222 
COMPS,ioos:station:USF.COMPS:C10:1,2019-06-03T01:35:00,27.1690,-82.9260,1013.53,11111222 
COMPS,ioos:station:USF.COMPS:C10:1,2019-06-03T02:35:00,27.1690,-82.9260,1013.95,11111222 
COMPS,ioos:station:USF.COMPS:C10:1,2019-06-03T03:35:00,27.1690,-82.9260,1014.43,11111222 
COMPS,ioos:station:USF.COMPS:C10:1,2019-06-03T04:35:00,27.1690,-82.9260,1014.35,11111222 
COMPS,ioos:station:USF.COMPS:C10:1,2019-06-03T05:35:00,27.1690,-82.9260,1013.84,11111222 
COMPS,ioos:station:USF.COMPS:C10:1,2019-06-03T06:35:00,27.1690,-82.9260,1013.23,11111222 
COMPS,ioos:station:USF.COMPS:C10:1,2019-06-03T07:35:00,27.1690,-82.9260,1012.63,11111222 
COMPS,ioos:station:USF.COMPS:C10:1,2019-06-03T08:35:00,27.1690,-82.9260,1012.8,11111222 
COMPS,ioos:station:USF.COMPS:C10:1,2019-06-03T09:35:00,27.1690,-82.9260,1013.32,11111222 
COMPS,ioos:station:USF.COMPS:C10:1,2019-06-03T10:35:00,27.1690,-82.9260,1014.28,11111222 
COMPS,ioos:station:USF.COMPS:C10:1,2019-06-03T11:35:00,27.1690,-82.9260,1014.86,11111222 
COMPS,ioos:station:USF.COMPS:C10:1,2019-06-03T12:35:00,27.1690,-82.9260,1015.65,11111222 
COMPS,ioos:station:USF.COMPS:C10:1,2019-06-03T13:35:00,27.1690,-82.9260,1016.19,11111222 
COMPS,ioos:station:USF.COMPS:C10:1,2019-06-03T14:35:00,27.1690,-82.9260,1016.35,11111222 
COMPS,ioos:station:USF.COMPS:C10:1,2019-06-03T15:35:00,27.1690,-82.9260,1016.47,11111222 
COMPS,ioos:station:USF.COMPS:C10:1,2019-06-03T16:35:00,27.1690,-82.9260,1016.59,11111222 
COMPS,ioos:station:USF.COMPS:C10:1,2019-06-03T17:35:00,27.1690,-82.9260,1016.16,11111222 
COMPS,ioos:station:USF.COMPS:C10:1,2019-06-03T18:35:00,27.1690,-82.9260,1015.54,11111222 
COMPS,ioos:station:USF.COMPS:C10:1,2019-06-03T19:35:00,27.1690,-82.9260,1015.05,11111222 
COMPS,ioos:station:USF.COMPS:C10:1,2019-06-03T20:35:00,27.1690,-82.9260,1014.8,11111222 
COMPS,ioos:station:USF.COMPS:C10:1,2019-06-03T21:35:00,27.1690,-82.9260,1014.64,11111222 
COMPS,ioos:station:USF.COMPS:C10:1,2019-06-03T22:35:00,27.1690,-82.9260,1014.61,11111222 
COMPS,ioos:station:USF.COMPS:C10:1,2019-06-04T00:35:00,27.1690,-82.9260,1014.66,11111222 
COMPS,ioos:station:USF.COMPS:C10:1,2019-06-04T01:35:00,27.1690,-82.9260,1014.99,11111222 
COMPS,ioos:station:USF.COMPS:C10:1,2019-06-04T02:35:00,27.1690,-82.9260,1015.49,11111222 
COMPS,ioos:station:USF.COMPS:C10:1,2019-06-04T03:35:00,27.1690,-82.9260,1016.23,11111222 
COMPS,ioos:station:USF.COMPS:C10:1,2019-06-04T04:35:00,27.1690,-82.9260,1016.58,11111222 
COMPS,ioos:station:USF.COMPS:C10:1,2019-06-04T05:35:00,27.1690,-82.9260,1016.23,11111222 
COMPS,ioos:station:USF.COMPS:C10:1,2019-06-04T06:35:00,27.1690,-82.9260,1015.61,11111222 
COMPS,ioos:station:USF.COMPS:C10:1,2019-06-04T07:35:00,27.1690,-82.9260,1015.25,11111222 
COMPS,ioos:station:USF.COMPS:C10:1,2019-06-04T08:35:00,27.1690,-82.9260,1015.29,11111222 
COMPS,ioos:station:USF.COMPS:C10:1,2019-06-04T09:35:00,27.1690,-82.9260,1015.78,11111222 
COMPS,ioos:station:USF.COMPS:C10:1,2019-06-04T10:35:00,27.1690,-82.9260,1016.31,11111222 
COMPS,ioos:station:USF.COMPS:C10:1,2019-06-04T11:35:00,27.1690,-82.9260,1016.55,11111222 
COMPS,ioos:station:USF.COMPS:C10:1,2019-06-04T12:35:00,27.1690,-82.9260,1017.2,11111222 
COMPS,ioos:station:USF.COMPS:C10:1,2019-06-04T13:35:00,27.1690,-82.9260,1017.46,11111222 
COMPS,ioos:station:USF.COMPS:C10:1,2019-06-04T14:35:00,27.1690,-82.9260,1017.61,11111222 
COMPS,ioos:station:USF.COMPS:C10:1,2019-06-04T15:35:00,27.1690,-82.9260,1018.04,11111222 
COMPS,ioos:station:USF.COMPS:C10:1,2019-06-04T16:35:00,27.1690,-82.9260,1018.0,11111222 
COMPS,ioos:station:USF.COMPS:C10:1,2019-06-04T17:35:00,27.1690,-82.9260,1017.74,11111222 
COMPS,ioos:station:USF.COMPS:C10:1,2019-06-04T18:35:00,27.1690,-82.9260,1017.18,11111222 
COMPS,ioos:station:USF.COMPS:C10:1,2019-06-04T19:35:00,27.1690,-82.9260,1016.51,11111222 
COMPS,ioos:station:USF.COMPS:C10:1,2019-06-04T20:35:00,27.1690,-82.9260,1016.2,11111222 
COMPS,ioos:station:USF.COMPS:C10:1,2019-06-04T21:35:00,27.1690,-82.9260,1015.52,11111222 
COMPS,ioos:station:USF.COMPS:C10:1,2019-06-04T22:35:00,27.1690,-82.9260,1015.42,11111222 
COMPS,ioos:station:USF.COMPS:C10:1,2019-06-04T23:35:00,27.1690,-82.9260,1016.18,11111222 
COMPS,ioos:station:USF.COMPS:C10:1,2019-06-05T00:35:00,27.1690,-82.9260,1016.76,11111222 
COMPS,ioos:station:USF.COMPS:C10:1,2019-06-05T01:35:00,27.1690,-82.9260,1016.41,11111222 
COMPS,ioos:station:USF.COMPS:C10:1,2019-06-05T02:35:00,27.1690,-82.9260,1016.23,11111222 
COMPS,ioos:station:USF.COMPS:C10:1,2019-06-05T03:35:00,27.1690,-82.9260,1016.65,11111222 
COMPS,ioos:station:USF.COMPS:C10:1,2019-06-05T04:35:00,27.1690,-82.9260,1016.82,11111222 
COMPS,ioos:station:USF.COMPS:C10:1,2019-06-05T05:35:00,27.1690,-82.9260,1016.66,11111222 
COMPS,ioos:station:USF.COMPS:C10:1,2019-06-05T06:35:00,27.1690,-82.9260,1016.18,11111222 
COMPS,ioos:station:USF.COMPS:C10:1,2019-06-05T07:35:00,27.1690,-82.9260,1015.77,11111222 
COMPS,ioos:station:USF.COMPS:C10:1,2019-06-05T08:35:00,27.1690,-82.9260,1015.47,11111222 
COMPS,ioos:station:USF.COMPS:C10:1,2019-06-05T09:35:00,27.1690,-82.9260,1015.77,11111222 
COMPS,ioos:station:USF.COMPS:C10:1,2019-06-05T10:35:00,27.1690,-82.9260,1016.6,11111222 
COMPS,ioos:station:USF.COMPS:C10:1,2019-06-05T11:35:00,27.1690,-82.9260,1016.83,11111222 
COMPS,ioos:station:USF.COMPS:C10:1,2019-06-05T12:35:00,27.1690,-82.9260,1016.66,11111222 
COMPS,ioos:station:USF.COMPS:C10:1,2019-06-05T14:35:00,27.1690,-82.9260,1016.95,11111222 
COMPS,ioos:station:USF.COMPS:C10:1,2019-06-05T15:35:00,27.1690,-82.9260,1017.07,11111222 
COMPS,ioos:station:USF.COMPS:C10:1,2019-06-05T16:35:00,27.1690,-82.9260,1016.89,11111222 
COMPS,ioos:station:USF.COMPS:C10:1,2019-06-05T17:35:00,27.1690,-82.9260,1016.58,11111222 
COMPS,ioos:station:USF.COMPS:C10:1,2019-06-05T18:35:00,27.1690,-82.9260,1015.79,11111222 
COMPS,ioos:station:USF.COMPS:C10:1,2019-06-05T19:35:00,27.1690,-82.9260,1015.43,11111222 
COMPS,ioos:station:USF.COMPS:C10:1,2019-06-05T20:35:00,27.1690,-82.9260,1015.06,11111222 
COMPS,ioos:station:USF.COMPS:C10:1,2019-06-05T21:35:00,27.1690,-82.9260,1014.45,11111222 
COMPS,ioos:station:USF.COMPS:C10:1,2019-06-05T22:35:00,27.1690,-82.9260,1014.63,11111222 
COMPS,ioos:station:USF.COMPS:C10:1,2019-06-05T23:35:00,27.1690,-82.9260,1014.88,11111222 
COMPS,ioos:station:USF.COMPS:C10:1,2019-06-06T00:35:00,27.1690,-82.9260,1014.95,11111222 
COMPS,ioos:station:USF.COMPS:C10:1,2019-06-06T01:35:00,27.1690,-82.9260,1015.27,11111222 
COMPS,ioos:station:USF.COMPS:C10:1,2019-06-06T02:35:00,27.1690,-82.9260,1015.66,11111222 
COMPS,ioos:station:USF.COMPS:C10:1,2019-06-06T03:35:00,27.1690,-82.9260,1015.6,11111222 
COMPS,ioos:station:USF.COMPS:C10:1,2019-06-06T04:35:00,27.1690,-82.9260,1015.47,11111222 
COMPS,ioos:station:USF.COMPS:C10:1,2019-06-06T05:35:00,27.1690,-82.9260,1014.84,11111222 
COMPS,ioos:station:USF.COMPS:C10:1,2019-06-06T06:35:00,27.1690,-82.9260,1013.94,11111222 
COMPS,ioos:station:USF.COMPS:C10:1,2019-06-06T07:35:00,27.1690,-82.9260,1013.34,11111222 
COMPS,ioos:station:USF.COMPS:C10:1,2019-06-06T08:35:00,27.1690,-82.9260,1013.38,11111222 
COMPS,ioos:station:USF.COMPS:C10:1,2019-06-06T09:35:00,27.1690,-82.9260,1013.39,11111222 
COMPS,ioos:station:USF.COMPS:C10:1,2019-06-06T10:35:00,27.1690,-82.9260,1013.57,11111222 
COMPS,ioos:station:USF.COMPS:C10:1,2019-06-06T11:35:00,27.1690,-82.9260,1013.72,11111222 
COMPS,ioos:station:USF.COMPS:C10:1,2019-06-06T13:35:00,27.1690,-82.9260,1014.34,11111222 
COMPS,ioos:station:USF.COMPS:C10:1,2019-06-06T14:35:00,27.1690,-82.9260,1014.16,11111222 
COMPS,ioos:station:USF.COMPS:C10:1,2019-06-06T15:35:00,27.1690,-82.9260,1014.22,11111222 
COMPS,ioos:station:USF.COMPS:C10:1,2019-06-06T16:35:00,27.1690,-82.9260,1013.98,11111222 
COMPS,ioos:station:USF.COMPS:C10:1,2019-06-06T18:35:00,27.1690,-82.9260,1013.56,11111222 
COMPS,ioos:station:USF.COMPS:C10:1,2019-06-06T19:35:00,27.1690,-82.9260,1013.42,11111222 
COMPS,ioos:station:USF.COMPS:C10:1,2019-06-06T20:35:00,27.1690,-82.9260,1013.01,11111222 
COMPS,ioos:station:USF.COMPS:C10:1,2019-06-06T21:35:00,27.1690,-82.9260,1012.78,11111222 
COMPS,ioos:station:USF.COMPS:C10:1,2019-06-06T22:35:00,27.1690,-82.9260,1012.31,11111222 
COMPS,ioos:station:USF.COMPS:C10:1,2019-06-06T23:35:00,27.1690,-82.9260,1012.71,11111222 
COMPS,ioos:station:USF.COMPS:C10:1,2019-06-07T00:35:00,27.1690,-82.9260,1012.68,11111222 
COMPS,ioos:station:USF.COMPS:C10:1,2019-06-07T01:35:00,27.1690,-82.9260,1012.88,11111222 
COMPS,ioos:station:USF.COMPS:C10:1,2019-06-07T02:35:00,27.1690,-82.9260,1013.14,11111222 
COMPS,ioos:station:USF.COMPS:C10:1,2019-06-07T03:35:00,27.1690,-82.9260,1012.9,11111222 
COMPS,ioos:station:USF.COMPS:C10:1,2019-06-07T04:35:00,27.1690,-82.9260,1012.53,11111222 
COMPS,ioos:station:USF.COMPS:C10:1,2019-06-07T05:35:00,27.1690,-82.9260,1011.86,11111222 
COMPS,ioos:station:USF.COMPS:C10:1,2019-06-07T06:35:00,27.1690,-82.9260,1011.53,11111222 
COMPS,ioos:station:USF.COMPS:C10:1,2019-06-07T07:35:00,27.1690,-82.9260,1011.55,11111222 
COMPS,ioos:station:USF.COMPS:C10:1,2019-06-07T08:35:00,27.1690,-82.9260,1011.62,11111222 
COMPS,ioos:station:USF.COMPS:C10:1,2019-06-07T09:35:00,27.1690,-82.9260,1011.52,11111222 
COMPS,ioos:station:USF.COMPS:C10:1,2019-06-07T10:35:00,27.1690,-82.9260,1011.9,11111222 
COMPS,ioos:station:USF.COMPS:C10:1,2019-06-07T11:35:00,27.1690,-82.9260,1012.27,11111222 
COMPS,ioos:station:USF.COMPS:C10:1,2019-06-07T12:35:00,27.1690,-82.9260,1012.31,11111222 
COMPS,ioos:station:USF.COMPS:C10:1,2019-06-07T13:35:00,27.1690,-82.9260,1012.36,11111222 
COMPS,ioos:station:USF.COMPS:C10:1,2019-06-07T14:35:00,27.1690,-82.9260,1012.23,11111222 
COMPS,ioos:station:USF.COMPS:C10:1,2019-06-07T15:35:00,27.1690,-82.9260,1012.55,11111222 
COMPS,ioos:station:USF.COMPS:C10:1,2019-06-07T16:35:00,27.1690,-82.9260,1012.53,11111222 
COMPS,ioos:station:USF.COMPS:C10:1,2019-06-07T17:35:00,27.1690,-82.9260,1012.16,11111222 
COMPS,ioos:station:USF.COMPS:C10:1,2019-06-07T18:35:00,27.1690,-82.9260,1011.98,11111222 
COMPS,ioos:station:USF.COMPS:C10:1,2019-06-07T19:35:00,27.1690,-82.9260,1011.59,11111222 
COMPS,ioos:station:USF.COMPS:C10:1,2019-06-07T20:35:00,27.1690,-82.9260,1011.3,11111222 
COMPS,ioos:station:USF.COMPS:C10:1,2019-06-07T21:35:00,27.1690,-82.9260,1011.11,11111222 
COMPS,ioos:station:USF.COMPS:C10:1,2019-06-07T22:35:00,27.1690,-82.9260,1010.59,11111222 
COMPS,ioos:station:USF.COMPS:C10:1,2019-06-07T23:35:00,27.1690,-82.9260,1010.71,11111222 
COMPS,ioos:station:USF.COMPS:C10:1,2019-06-08T00:35:00,27.1690,-82.9260,1011.21,11111222 
COMPS,ioos:station:USF.COMPS:C10:1,2019-06-08T01:35:00,27.1690,-82.9260,1011.72,11111222 
COMPS,ioos:station:USF.COMPS:C10:1,2019-06-08T02:35:00,27.1690,-82.9260,1012.21,11111222 
COMPS,ioos:station:USF.COMPS:C10:1,2019-06-08T03:35:00,27.1690,-82.9260,1012.13,11111222 
COMPS,ioos:station:USF.COMPS:C10:1,2019-06-08T04:35:00,27.1690,-82.9260,1011.75,11111222 
COMPS,ioos:station:USF.COMPS:C10:1,2019-06-08T05:35:00,27.1690,-82.9260,1011.34,11111222 
COMPS,ioos:station:USF.COMPS:C10:1,2019-06-08T06:35:00,27.1690,-82.9260,1010.85,11111222 
COMPS,ioos:station:USF.COMPS:C10:1,2019-06-08T07:35:00,27.1690,-82.9260,1010.68,11111222 
COMPS,ioos:station:USF.COMPS:C10:1,2019-06-08T08:35:00,27.1690,-82.9260,1010.57,11111222 
COMPS,ioos:station:USF.COMPS:C10:1,2019-06-08T09:35:00,27.1690,-82.9260,1010.94,11111222 
COMPS,ioos:station:USF.COMPS:C10:1,2019-06-08T10:35:00,27.1690,-82.9260,1011.52,11111222 
COMPS,ioos:station:USF.COMPS:C10:1,2019-06-08T11:35:00,27.1690,-82.9260,1011.75,11111222 
COMPS,ioos:station:USF.COMPS:C10:1,2019-06-08T12:35:00,27.1690,-82.9260,1012.5,11111222 
COMPS,ioos:station:USF.COMPS:C10:1,2019-06-08T13:35:00,27.1690,-82.9260,1012.9,11111222 
COMPS,ioos:station:USF.COMPS:C10:1,2019-06-08T14:35:00,27.1690,-82.9260,1012.85,11111222 
COMPS,ioos:station:USF.COMPS:C10:1,2019-06-08T15:35:00,27.1690,-82.9260,1013.14,11111222 
COMPS,ioos:station:USF.COMPS:C10:1,2019-06-08T16:35:00,27.1690,-82.9260,1013.4,11111222 
COMPS,ioos:station:USF.COMPS:C10:1,2019-06-08T17:35:00,27.1690,-82.9260,1012.86,11111222 
COMPS,ioos:station:USF.COMPS:C10:1,2019-06-08T18:35:00,27.1690,-82.9260,1012.57,11111222 
COMPS,ioos:station:USF.COMPS:C10:1,2019-06-09T00:35:00,27.1690,-82.9260,1012.48,11111222 
COMPS,ioos:station:USF.COMPS:C10:1,2019-06-09T01:35:00,27.1690,-82.9260,1012.63,11111222 
COMPS,ioos:station:USF.COMPS:C10:1,2019-06-09T02:35:00,27.1690,-82.9260,1012.66,11111222 
COMPS,ioos:station:USF.COMPS:C10:1,2019-06-09T03:35:00,27.1690,-82.9260,1013.58,11111222 
COMPS,ioos:station:USF.COMPS:C10:1,2019-06-09T04:35:00,27.1690,-82.9260,1014.28,11111222 
COMPS,ioos:station:USF.COMPS:C10:1,2019-06-09T05:35:00,27.1690,-82.9260,1014.26,11111222 
COMPS,ioos:station:USF.COMPS:C10:1,2019-06-09T06:35:00,27.1690,-82.9260,1013.19,11111222 
COMPS,ioos:station:USF.COMPS:C10:1,2019-06-09T07:35:00,27.1690,-82.9260,1012.37,11111222 
COMPS,ioos:station:USF.COMPS:C10:1,2019-06-09T08:35:00,27.1690,-82.9260,1012.24,11111222 
COMPS,ioos:station:USF.COMPS:C10:1,2019-06-09T09:35:00,27.1690,-82.9260,1012.49,11111222 
COMPS,ioos:station:USF.COMPS:C10:1,2019-06-09T10:35:00,27.1690,-82.9260,1012.64,11111222 
COMPS,ioos:station:USF.COMPS:C10:1,2019-06-09T11:35:00,27.1690,-82.9260,1013.1,11111222 
COMPS,ioos:station:USF.COMPS:C10:1,2019-06-09T12:35:00,27.1690,-82.9260,1013.51,11111222 
COMPS,ioos:station:USF.COMPS:C10:1,2019-06-09T13:35:00,27.1690,-82.9260,1013.82,11111222 
COMPS,ioos:station:USF.COMPS:C10:1,2019-06-09T14:35:00,27.1690,-82.9260,1014.01,11111222 
COMPS,ioos:station:USF.COMPS:C10:1,2019-06-09T15:35:00,27.1690,-82.9260,1014.49,11111222 
COMPS,ioos:station:USF.COMPS:C10:1,2019-06-09T16:35:00,27.1690,-82.9260,1014.85,11111222 
COMPS,ioos:station:USF.COMPS:C10:1,2019-06-09T17:35:00,27.1690,-82.9260,1014.56,11111222 
COMPS,ioos:station:USF.COMPS:C10:1,2019-06-09T18:35:00,27.1690,-82.9260,1013.78,11111222 
COMPS,ioos:station:USF.COMPS:C10:1,2019-06-09T19:35:00,27.1690,-82.9260,1013.52,11111222 
COMPS,ioos:station:USF.COMPS:C10:1,2019-06-09T20:35:00,27.1690,-82.9260,1013.59,11111222 
COMPS,ioos:station:USF.COMPS:C10:1,2019-06-09T21:35:00,27.1690,-82.9260,1013.71,11111222 
COMPS,ioos:station:USF.COMPS:C10:1,2019-06-09T22:35:00,27.1690,-82.9260,1013.43,11111222 
COMPS,ioos:station:USF.COMPS:C10:1,2019-06-09T23:35:00,27.1690,-82.9260,1013.73,11111222 
COMPS,ioos:station:USF.COMPS:C10:1,2019-06-10T00:35:00,27.1690,-82.9260,1014.04,11111222 
COMPS,ioos:station:USF.COMPS:C10:1,2019-06-10T01:35:00,27.1690,-82.9260,1014.68,11111222 
COMPS,ioos:station:USF.COMPS:C10:1,2019-06-10T02:35:00,27.1690,-82.9260,1015.48,11111222 
COMPS,ioos:station:USF.COMPS:C10:1,2019-06-10T03:35:00,27.1690,-82.9260,1015.95,11111222 
COMPS,ioos:station:USF.COMPS:C10:1,2019-06-10T04:35:00,27.1690,-82.9260,1016.07,11111222 
COMPS,ioos:station:USF.COMPS:C10:1,2019-06-10T05:35:00,27.1690,-82.9260,1015.16,11111222 
COMPS,ioos:station:USF.COMPS:C10:1,2019-06-10T06:35:00,27.1690,-82.9260,1015.05,11111222 
COMPS,ioos:station:USF.COMPS:C10:1,2019-06-10T07:35:00,27.1690,-82.9260,1014.67,11111222 
COMPS,ioos:station:USF.COMPS:C10:1,2019-06-10T08:35:00,27.1690,-82.9260,1013.87,11111222 
COMPS,ioos:station:USF.COMPS:C10:1,2019-06-10T09:35:00,27.1690,-82.9260,1013.84,11111222 
COMPS,ioos:station:USF.COMPS:C10:1,2019-06-10T10:35:00,27.1690,-82.9260,1014.74,11111222 
COMPS,ioos:station:USF.COMPS:C10:1,2019-06-10T11:35:00,27.1690,-82.9260,1015.22,11111222 
COMPS,ioos:station:USF.COMPS:C10:1,2019-06-10T12:35:00,27.1690,-82.9260,1015.8,11111222 
COMPS,ioos:station:USF.COMPS:C10:1,2019-06-10T13:35:00,27.1690,-82.9260,1016.5,11111222 
COMPS,ioos:station:USF.COMPS:C10:1,2019-06-10T14:35:00,27.1690,-82.9260,1016.79,11111222 
COMPS,ioos:station:USF.COMPS:C10:1,2019-06-10T15:35:00,27.1690,-82.9260,1017.21,11111222 
COMPS,ioos:station:USF.COMPS:C10:1,2019-06-10T16:35:00,27.1690,-82.9260,1017.69,11111222 
COMPS,ioos:station:USF.COMPS:C10:1,2019-06-10T17:35:00,27.1690,-82.9260,1016.3,11111222 
COMPS,ioos:station:USF.COMPS:C10:1,2019-06-10T18:35:00,27.1690,-82.9260,1016.43,11111222 
COMPS,ioos:station:USF.COMPS:C10:1,2019-06-10T19:35:00,27.1690,-82.9260,1015.95,11111222 
COMPS,ioos:station:USF.COMPS:C10:1,2019-06-10T20:35:00,27.1690,-82.9260,1015.66,11111222 
COMPS,ioos:station:USF.COMPS:C10:1,2019-06-10T21:35:00,27.1690,-82.9260,1015.5,11111222 
COMPS,ioos:station:USF.COMPS:C10:1,2019-06-10T22:35:00,27.1690,-82.9260,1015.15,11111222 
COMPS,ioos:station:USF.COMPS:C10:1,2019-06-10T23:35:00,27.1690,-82.9260,1015.54,11111222 
COMPS,ioos:station:USF.COMPS:C10:1,2019-06-11T00:35:00,27.1690,-82.9260,1015.71,11111222 
COMPS,ioos:station:USF.COMPS:C10:1,2019-06-11T01:35:00,27.1690,-82.9260,1015.86,11111222 
COMPS,ioos:station:USF.COMPS:C10:1,2019-06-11T02:35:00,27.1690,-82.9260,1016.44,11111222 
COMPS,ioos:station:USF.COMPS:C10:1,2019-06-11T03:35:00,27.1690,-82.9260,1016.4,11111222 
COMPS,ioos:station:USF.COMPS:C10:1,2019-06-11T04:35:00,27.1690,-82.9260,1016.09,11111222 
COMPS,ioos:station:USF.COMPS:C10:1,2019-06-11T05:35:00,27.1690,-82.9260,1015.77,11111222 
COMPS,ioos:station:USF.COMPS:C10:1,2019-06-11T06:35:00,27.1690,-82.9260,1015.27,11111222 
COMPS,ioos:station:USF.COMPS:C10:1,2019-06-11T07:35:00,27.1690,-82.9260,1015.28,11111222 
COMPS,ioos:station:USF.COMPS:C10:1,2019-06-11T08:35:00,27.1690,-82.9260,1015.12,11111222 
COMPS,ioos:station:USF.COMPS:C10:1,2019-06-11T09:35:00,27.1690,-82.9260,1014.93,11111222 
COMPS,ioos:station:USF.COMPS:C10:1,2019-06-11T10:35:00,27.1690,-82.9260,1015.34,11111222 
COMPS,ioos:station:USF.COMPS:C10:1,2019-06-11T11:35:00,27.1690,-82.9260,1015.75,11111222 
COMPS,ioos:station:USF.COMPS:C10:1,2019-06-11T12:35:00,27.1690,-82.9260,1016.23,11111222 
COMPS,ioos:station:USF.COMPS:C10:1,2019-06-11T13:35:00,27.1690,-82.9260,1016.42,11111222 
COMPS,ioos:station:USF.COMPS:C10:1,2019-06-11T14:35:00,27.1690,-82.9260,1016.48,11111222 
COMPS,ioos:station:USF.COMPS:C10:1,2019-06-11T15:35:00,27.1690,-82.9260,1016.73,11111222 
COMPS,ioos:station:USF.COMPS:C10:1,2019-06-11T16:35:00,27.1690,-82.9260,1016.59,11111222 
COMPS,ioos:station:USF.COMPS:C10:1,2019-06-11T19:35:00,27.1690,-82.9260,1015.11,11111222 
COMPS,ioos:station:USF.COMPS:C10:1,2019-06-11T20:35:00,27.1690,-82.9260,1014.55,11111222 
COMPS,ioos:station:USF.COMPS:C10:1,2019-06-11T21:35:00,27.1690,-82.9260,1014.64,11111222 
COMPS,ioos:station:USF.COMPS:C10:1,2019-06-11T22:35:00,27.1690,-82.9260,1014.34,11111222 
COMPS,ioos:station:USF.COMPS:C10:1,2019-06-11T23:35:00,27.1690,-82.9260,1014.56,11111222 
COMPS,ioos:station:USF.COMPS:C10:1,2019-06-12T00:35:00,27.1690,-82.9260,1014.87,11111222 
COMPS,ioos:station:USF.COMPS:C10:1,2019-06-12T01:35:00,27.1690,-82.9260,1015.33,11111222 
COMPS,ioos:station:USF.COMPS:C10:1,2019-06-12T02:35:00,27.1690,-82.9260,1016.16,11111222 
COMPS,ioos:station:USF.COMPS:C10:1,2019-06-12T03:35:00,27.1690,-82.9260,1016.32,11111222 
COMPS,ioos:station:USF.COMPS:C10:1,2019-06-12T04:35:00,27.1690,-82.9260,1015.88,11111222 
COMPS,ioos:station:USF.COMPS:C10:1,2019-06-12T05:35:00,27.1690,-82.9260,1015.4,11111222 
COMPS,ioos:station:USF.COMPS:C10:1,2019-06-12T06:35:00,27.1690,-82.9260,1014.63,11111222 
COMPS,ioos:station:USF.COMPS:C10:1,2019-06-12T07:35:00,27.1690,-82.9260,1014.09,11111222 
COMPS,ioos:station:USF.COMPS:C10:1,2019-06-12T08:35:00,27.1690,-82.9260,1014.25,11111222 
COMPS,ioos:station:USF.COMPS:C10:1,2019-06-12T09:35:00,27.1690,-82.9260,1014.29,11111222 
COMPS,ioos:station:USF.COMPS:C10:1,2019-06-12T10:35:00,27.1690,-82.9260,1014.7,11111222 
COMPS,ioos:station:USF.COMPS:C10:1,2019-06-12T11:35:00,27.1690,-82.9260,1015.23,11111222 
COMPS,ioos:station:USF.COMPS:C10:1,2019-06-12T12:35:00,27.1690,-82.9260,1015.63,11111222 
COMPS,ioos:station:USF.COMPS:C10:1,2019-06-12T13:35:00,27.1690,-82.9260,1015.72,11111222 
COMPS,ioos:station:USF.COMPS:C10:1,2019-06-12T14:35:00,27.1690,-82.9260,1015.89,11111222 